This is the latest recevied weather packets stored in our database for station/object ED1YBO-10. If no packets are shown the sender has not sent any weather packets the latest 10 day(s).
| Time | Temp. | Humidity | Pressure | Rain* | Wind** | Luminosity | Snow |
|---|---|---|---|---|---|---|---|
| 1787764691 | 73° F | 49% | 707.8 mmHg | - | - | - | - |
| 1787763491 | 73° F | 49% | 708 mmHg | - | - | - | - |
| 1787762290 | 73° F | 48% | 708.1 mmHg | - | - | - | - |
| 1787761090 | 73° F | 48% | 708.1 mmHg | - | - | - | - |
| 1787759890 | 73° F | 49% | 708.3 mmHg | - | - | - | - |
| 1787758690 | 73° F | 48% | 708 mmHg | - | - | - | - |
| 1787757489 | 72° F | 51% | 708.1 mmHg | - | - | - | - |
| 1787756288 | 71° F | 52% | 708.6 mmHg | - | - | - | - |
| 1787755088 | 72° F | 51% | 708.7 mmHg | - | - | - | - |
| 1787753888 | 71° F | 50% | 709 mmHg | - | - | - | - |
| 1787752687 | 71° F | 50% | 708.4 mmHg | - | - | - | - |
| 1787751486 | 71° F | 50% | 709 mmHg | - | - | - | - |
| 1787750286 | 70° F | 50% | 709.5 mmHg | - | - | - | - |
| 1787749086 | 69° F | 50% | 709.9 mmHg | - | - | - | - |
| 1787747885 | 70° F | 53% | 710.2 mmHg | - | - | - | - |
| 1787746685 | 71° F | 49% | 710.2 mmHg | - | - | - | - |
| 1787745485 | 70° F | 52% | 709.7 mmHg | - | - | - | - |
| 1787744285 | 73° F | 54% | 709.3 mmHg | - | - | - | - |
| 1787743085 | 73° F | 57% | 709 mmHg | - | - | - | - |
| 1787741885 | 73° F | 58% | 709 mmHg | - | - | - | - |
| 1787740684 | 72° F | 60% | 709 mmHg | - | - | - | - |
| 1787739483 | 72° F | 60% | 708.7 mmHg | - | - | - | - |
| 1787738283 | 72° F | 61% | 708.7 mmHg | - | - | - | - |
| 1787737424 | 74° F | 70% | 708.9 mmHg | - | - | - | - |
* Rain since midnight (hover to see other rain measurements)
** Current wind speed in m/s (hover to see current wind gust speed)